Погода в Снятыне

Украина / Ивано-Франковская область     48°27′04″N   25°34′15″E
темп.,
°C
ветер,
м/с
пор.,
м/с
влажн.,
%
обл.,
%
осадки,
мм/ч
давл.,
гПа
погр.,
м
27 ноября, сб
сб2723:00+6ююв4771100 0.0 994196
02:00+6ююз3469100 0.0 99463
05:00+7ю2274100 0.0 99326
08:00+7ююз2274100 0.0 99520
11:00+9зюз3667100 0.0 997121
14:00+9зсз2367100 0.0 998293
17:00+8юз117250 0.0 100015
20:00+6ю22787 0.0 100114
28 ноября, вс
вс2823:00+5ююв228167 0.0 100213
02:00+4юв3380100 0.0 100243
05:00+5вюв3678100 0.0 1001106
08:00+5юв3477100 0.0 100064
11:00+7в1271100 0.0 1000108
14:00+8в1165100 0.0 99935
17:00+7вюв2270100 0.0 99826
20:00+7юв3479100 0.0 99749
29 ноября, пн
пн2923:00+7юв3677100 0.0 995113
02:00+6вюв3577100 0.0 99395
05:00+5юв228338 0.0 99032
08:00+5ю1183100 0.0 99011
11:00+4сз81282100 0.0 994403
14:00+5сз7965100 0.0 995574
17:00+2сз6117441 0.0 998523
20:00+2сз6136894 0.0 1000694
30 ноября, вт
вт3023:00+1сз5117463 0.0 1001471
02:00−1зсз387665 0.0 1004322
05:00−1зсз3672100 0.0 1004169
08:00−1зсз41171100 0.0 1006405
11:00+2сз7115582 0.0 10071151
14:00+3сз711569 0.0 10061169
17:00+1сз510686 0.0 1007451
20:00−2зюз22765 0.0 100831
1 декабря, ср
ср123:00−2ю237598 0.0 100640
02:00−1ююв1159100 0.0 100514
05:00+1з3753100 0.1 1004241
08:00+3з61250100 0.2 1005421
11:00+5зсз71247100 0.0 10061505
14:00+6зсз6104896 0.0 10071717
17:00+3з2260100 0.0 100713
20:00+2ю2364100 0.0 100744